Overview Statistics Trail Chart Weather Telemetry Raw packets
 

This is the latest recevied weather packets stored in our database for station/object KI6UAP-10. If no packets are shown the sender has not sent any weather packets the latest 10 day(s).

<< 1 2 3 4 5 6 7 >>
Time Temp. Humidity Pressure Rain* Wind** Luminosity Snow
1777779629 15° C 98% 0 hPa - - - -
1777778729 15° C 99% 0 hPa - - - -
1777777829 14.44° C 100% 0 hPa - - - -
1777760083 30.56° C 85% 0 hPa - - - -
1777759931 30.56° C 85% 0 hPa - - - -
1777759874 30.56° C 85% 0 hPa - - - -
1777759223 22.78° C 96% 0 hPa - - - -
1777759107 22.22° C 97% 0 hPa - - - -
1777759067 22.22° C 97% 0 hPa - - - -
1777753643 21.67° C 97% 0 hPa - - - -
1777750521 21.11° C 97% 0 hPa - - - -
1777749147 21.11° C 96% 0 hPa - - - -
1777727380 13.33° C 99% 0 hPa - - - -
1777726480 13.33° C 99% 0 hPa - - - -
1777725580 13.33° C 99% 0 hPa - - - -
1777724679 13.33° C 99% 0 hPa - - - -
1777723779 13.33° C 99% 0 hPa - - - -
1777722879 13.33° C 98% 0 hPa - - - -
1777721979 13.89° C 98% 0 hPa - - - -
1777721079 13.33° C 98% 0 hPa - - - -
1777720179 13.33° C 98% 0 hPa - - - -
1777719278 13.89° C 98% 0 hPa - - - -
1777718378 13.89° C 98% 0 hPa - - - -
1777717478 13.89° C 98% 0 hPa - - - -
1777716578 13.89° C 98% 0 hPa - - - -

* Rain since midnight (hover to see other rain measurements)
** Current wind speed in m/s (hover to see current wind gust speed)